EW4858 Weather Reports


Display with metric or nautical units.
time (UTC)temp
F
wind
direction
speed
MPH
gust
MPH
rain 1hr
in
rain 24hr
in
rain mn
in
humidity
%
barometer
mb
20260905210058 94 113 3.0 11.0 0.00 0.00 0.00 26 1007.8
20260905204556 94 345 3.0 10.0 0.00 0.00 0.00 26 1008.0
20260905203100 94 51 4.0 10.0 0.00 0.00 0.00 22 1008.2
20260905200052 93 88 3.0 8.0 0.00 0.00 0.00 19 1008.5
20260905194547 92 57 1.0 8.0 0.00 0.00 0.00 16 1008.7
20260905193104 92 117 1.0 8.0 0.00 0.00 0.00 17 1008.9
20260905191543 90 68 0.0 5.0 0.00 0.00 0.00 20 1009.1
20260905190038 89 75 0.0 6.0 0.00 0.00 0.00 22 1009.3
20260905184534 87 57 1.0 8.0 0.00 0.00 0.00 26 1009.6
20260905183032 87 67 0.0 8.0 0.00 0.00 0.00 28 1009.7
20260905181527 85 30 0.0 5.0 0.00 0.00 0.00 30 1009.8
20260905180025 84 90 1.0 3.0 0.00 0.00 0.00 32 1009.8
20260905174523 83 123 0.0 3.0 0.00 0.00 0.00 30 1009.8
20260905173021 82 58 1.0 4.0 0.00 0.00 0.00 30 1009.7
20260905171529 80 22 0.0 4.0 0.00 0.00 0.00 33 1009.6
20260905170013 79 57 1.0 4.0 0.00 0.00 0.00 33 1009.6
20260905164517 77 65 0.0 2.0 0.00 0.00 0.00 39 1009.6
20260905163004 75 49 0.0 3.0 0.00 0.00 0.00 45 1009.6
20260905161600 74 46 0.0 3.0 0.00 0.00 0.00 49 1009.5
20260905160057 72 114 1.0 3.0 0.00 0.00 0.00 54 1009.6
20260905154605 72 86 0.0 3.0 0.00 0.00 0.00 55 1009.7
20260905153052 71 94 1.0 3.0 0.00 0.00 0.00 53 1009.6
20260905151548 69 302 0.0 0.0 0.00 0.00 0.00 59 1009.5
20260905150045 68 302 0.0 0.0 0.00 0.00 0.00 63 1009.5
20260905144541 66 302 0.0 0.0 0.00 0.00 0.00 69 1009.4
20260905143039 64 302 0.0 0.0 0.00 0.00 0.00 73 1009.3
20260905141537 62 302 0.0 0.0 0.00 0.00 0.00 77 1009.3
20260905140037 60 302 0.0 2.0 0.00 0.00 0.00 80 1009.2
20260905134544 59 302 0.0 0.0 0.00 0.00 0.00 80 1008.9
20260905133035 59 302 0.0 0.0 0.00 0.00 0.00 81 1008.8
20260905131535 59 302 0.0 0.0 0.00 0.00 0.00 81 1008.7
20260905130033 59 302 0.0 0.0 0.00 0.00 0.00 80 1008.6
20260905124533 59 302 0.0 0.0 0.00 0.00 0.00 81 1008.4
20260905123032 60 302 0.0 0.0 0.00 0.00 0.00 82 1008.4
20260905121529 60 302 0.0 0.0 0.00 0.00 0.00 82 1008.4
20260905114529 60 302 0.0 0.0 0.00 0.00 0.00 82 1008.4
20260905113024 60 302 0.0 0.0 0.00 0.00 0.00 82 1008.5
20260905111522 61 302 0.0 0.0 0.00 0.00 0.00 82 1008.5
20260905110021 61 302 0.0 0.0 0.00 0.00 0.00 82 1008.6
20260905104521 61 302 0.0 0.0 0.00 0.00 0.00 82 1008.5
20260905103027 61 302 0.0 0.0 0.00 0.00 0.00 82 1008.5
20260905101519 61 302 0.0 0.0 0.00 0.00 0.00 81 1008.7
20260905100016 62 302 0.0 0.0 0.00 0.00 0.00 81 1008.7
20260905094517 62 302 0.0 0.0 0.00 0.00 0.00 80 1008.7
20260905093013 62 302 0.0 0.0 0.00 0.00 0.00 80 1008.8
20260905091512 62 302 0.0 0.0 0.00 0.00 0.00 80 1008.7
20260905090010 63 302 0.0 0.0 0.00 0.00 0.00 79 1008.9
20260905084508 63 302 0.0 0.0 0.00 0.00 0.00 79 1009.0
20260905083010 63 302 0.0 0.0 0.00 0.00 0.00 79 1009.0
20260905081503 64 302 0.0 0.0 0.00 0.00 0.00 78 1009.3
20260905080006 64 302 0.0 0.0 0.00 0.00 0.00 78 1009.4
20260905074502 64 302 0.0 3.0 0.00 0.00 0.00 78 1009.6
20260905073104 64 302 0.0 3.0 0.00 0.00 0.00 77 1009.8
20260905071605 64 303 0.0 0.0 0.00 0.00 0.00 78 1009.8
20260905070055 65 303 0.0 3.0 0.00 0.00 0.00 81 1009.7
20260905064555 66 303 0.0 0.0 0.00 0.00 0.00 82 1009.6
20260905063054 66 303 0.0 0.0 0.00 0.00 0.00 82 1009.7
20260905061606 67 303 0.0 0.0 0.00 0.00 0.00 82 1009.5
20260905060058 67 303 0.0 3.0 0.00 0.00 0.00 82 1009.4
20260905054554 67 302 0.0 0.0 0.00 0.00 0.00 81 1009.4
20260905053052 68 307 0.0 3.0 0.00 0.00 0.00 81 1009.4
20260905051600 68 315 0.0 3.0 0.00 0.00 0.00 80 1009.4
20260905050051 68 307 0.0 5.0 0.00 0.00 0.00 79 1009.3
20260905044552 68 329 0.0 0.0 0.00 0.00 0.00 79 1009.2
20260905043057 69 329 0.0 3.0 0.00 0.00 0.00 78 1009.0
20260905041550 69 329 0.0 0.0 0.00 0.00 0.00 77 1008.9
20260905040056 70 329 0.0 0.0 0.00 0.00 0.00 76 1008.9
20260905034551 70 307 0.0 0.0 0.00 0.00 0.00 74 1008.8
20260905033053 71 315 0.0 0.0 0.00 0.00 0.00 70 1008.7
20260905031551 72 31 0.0 4.0 0.00 0.00 0.00 68 1008.5
20260905030057 73 38 0.0 6.0 0.00 0.00 0.00 66 1008.2
20260905024546 74 47 3.0 6.0 0.00 0.00 0.00 64 1008.0
20260905023046 75 63 2.0 5.0 0.00 0.00 0.00 61 1007.9
20260905021546 77 47 3.0 7.0 0.00 0.00 0.00 51 1008.0
20260905020049 78 38 2.0 7.0 0.00 0.00 0.00 45 1007.9
20260905014543 79 44 4.0 7.0 0.00 0.00 0.00 42 1007.8
20260905013049 80 36 0.0 7.0 0.00 0.00 0.00 43 1007.7
20260905011622 81 17 0.0 7.0 0.00 0.00 0.00 43 1007.7
20260905010043 80 41 3.0 6.0 0.00 0.00 0.00 43 1007.6
20260905004542 81 55 4.0 8.0 0.00 0.00 0.00 43 1007.7
20260905003040 80 79 2.0 10.0 0.00 0.00 0.00 46 1007.7
20260905001550 81 62 5.0 9.0 0.00 0.00 0.00 45 1007.8
20260905000042 81 67 4.0 9.0 0.00 0.00 0.00 45 1007.9
20260904234539 81 70 6.0 12.0 0.00 0.00 0.00 45 1007.8
20260904233041 81 69 5.0 11.0 0.00 0.00 0.00 46 1007.8
20260904231537 81 53 7.0 11.0 0.00 0.00 0.00 46 1007.9
20260904230037 82 61 6.0 11.0 0.00 0.00 0.00 45 1007.9
20260904224536 82 40 5.0 10.0 0.00 0.00 0.00 45 1007.9
20260904223036 82 65 6.0 12.0 0.00 0.00 0.00 42 1008.1
20260904221533 83 17 7.0 14.0 0.00 0.00 0.00 42 1008.2
20260904220033 83 20 6.0 11.0 0.00 0.00 0.00 43 1008.2
20260904214531 83 360 6.0 11.0 0.00 0.00 0.00 44 1008.3
20260904213032 83 56 7.0 13.0 0.00 0.00 0.00 43 1008.2
20260904211529 83 92 6.0 13.0 0.00 0.00 0.00 44 1008.2